Location: Kaseke
(18.0171°S, 31.0526°E)
Time: 01:19:52
(UTC+00:00)

Tianhe-1 - Visible Passes

Search period start: 22 June 2021 00:00
Search period end: 02 July 2021 00:00
Orbit: 375 x 386 km, 41.5° (Epoch: 21 June)

Date Brightness Start Highest point End Pass type
(mag) Time Alt. Az. Time Alt. Az. Time Alt. Az.
26 Jun 2.2 16:23:41 10° SSW 16:26:21 25° SE 16:26:48 24° SE visible
27 Jun 2.0 16:59:03 10° WSW 17:02:05 46° NW 17:02:31 42° NNW visible
28 Jun 1.1 15:58:02 10° SW 16:01:09 59° SE 16:04:13 10° ENE visible
29 Jun 4.0 16:34:26 10° W 16:36:44 19° NW 16:39:02 10° N visible
